Location: Larkspur
(54.4391°N, 113.7691°W)
Time: 07:33:46
(UTC+00:00)

BEESAT - Visible Passes

Search period start: 03 December 2023 00:00
Search period end: 13 December 2023 00:00
Orbit: 696 x 702 km, 98.5° (Epoch: 02 December)

Date Brightness Start Highest point End Pass type
(mag) Time Alt. Az. Time Alt. Az. Time Alt. Az.
03 Dec ? 14:52:29 10° ESE 14:56:25 26° ENE 15:00:23 10° N visible
04 Dec ? 13:59:28 10° ENE 14:01:14 12° NE 14:02:58 10° NNE visible
05 Dec ? 14:38:48 10° ESE 14:42:22 21° NE 14:45:57 10° N visible
07 Dec ? 14:25:14 10° E 14:28:20 17° NE 14:31:26 10° N visible
09 Dec ? 14:11:49 10° E 14:14:17 14° NE 14:16:47 10° NNE visible
10 Dec ? 14:51:36 10° ESE 14:55:29 26° ENE 14:59:23 10° N visible
11 Dec ? 13:58:41 10° ENE 14:00:16 12° NE 14:01:51 10° NNE visible
12 Dec ? 14:37:53 10° ESE 14:41:22 21° NE 14:44:53 10° N visible
